Wetbulb
73.05 75.73 78.44 78.39 78.48 78.03 77.78 77.48 77.60 77.81 78.49 78.99 78.75 78.35 78.42 78.39 78.47 78.69 78.84 78.06 78.51 78.71 78.51 78.53 78.26 77.33 76.60 76.92 77.60 77.94 77.93 78.06 78.23 77.55 77.43 77.13 77.06 77.62 78.32 76.43 75.84 74.74 76.78
74.18 76.08 78.21 78.62 78.59 78.36 78.31 77.87 77.71 77.86 77.85 78.61 78.73 78.47 77.82 77.42 77.34 77.82 78.01 78.31 78.10 77.90 77.69 77.47 77.66 77.93 77.81 76.43 77.51 76.32 76.97 77.90 77.99 76.61 77.25 77.22 77.11 77.26 78.27 77.73 77.38 76.25 76.99
73.67 76.22 77.24 78.36 78.49 78.33 78.53 78.21 77.68 77.33 77.14 77.89 78.07 77.82 77.40 77.29 76.94 76.98 76.87 76.76 77.30 78.02 77.40 77.12 77.31 77.56 77.91 77.40 76.37 78.07 77.95 77.46 78.26 77.39 77.46 74.91 73.70 76.52 76.21 76.10 76.19 75.99 75.79
74.66 75.39 76.54 78.19 78.61 78.31 78.27 78.36 78.34 77.32 77.20 77.50 77.49 77.23 77.12 77.08 76.75 76.65 76.55 76.49 76.65 76.60 77.61 77.32 76.82 76.69 76.80 77.01 76.63 76.10 77.27 77.31 77.87 78.39 74.12 75.08 74.66 77.45 77.16 77.35 77.38 77.45 77.08
73.40 75.26 76.40 78.72 78.72 78.53 78.11 77.90 78.31 77.94 77.37 77.31 77.18 77.10 76.88 76.78 76.57 76.30 75.91 75.77 75.85 76.08 76.16 76.58 77.07 76.30 76.24 76.13 76.24 75.90 76.04 76.43 76.63 76.63 73.77 72.01 73.44 76.50 76.92 76.40 75.87 75.37 75.15
72.74 75.70 78.06 78.91 78.22 78.63 78.29 78.41 77.96 77.99 77.59 77.54 77.07 76.85 76.67 76.21 75.83 75.85 76.13 75.99 76.46 75.85 75.47 75.52 76.25 77.10 76.30 75.86 75.55 75.55 75.58 75.63 75.66 74.07 73.43 72.82 71.11 75.38 76.09 76.09 76.45 75.92 76.96
73.42 75.78 77.23 78.65 79.18 79.15 78.96 78.76 78.50 77.84 77.48 77.54 77.02 76.54 76.24 76.77 76.57 76.05 75.47 75.61 75.63 75.91 75.63 75.19 75.38 76.08 76.24 76.55 76.08 76.18 76.43 76.30 74.53 73.58 70.21 70.33 72.18 76.94 77.64 77.48 76.28 75.09 74.51
74.20 75.42 76.43 78.66 79.17 78.87 78.02 77.98 78.05 77.46 77.13 76.91 76.95 76.87 76.63 76.35 76.19 75.44 75.11 74.77 75.33 75.66 75.75 75.38 75.91 76.02 75.96 76.29 76.82 76.75 77.00 76.69 74.34 73.06 71.82 72.26 75.69 78.02 77.70 76.99 76.41 75.56 74.59
74.92 75.33 75.44 75.86 76.56 78.15 78.55 78.08 77.92 77.00 76.92 76.59 76.32 76.07 75.88 75.58 75.22 75.77 75.02 74.72 75.22 75.44 75.86 75.72 75.77 75.94 76.35 76.46 76.48 77.14 77.19 76.41 73.35 72.68 72.98 73.52 76.37 77.83 77.46 76.49 76.91 76.47 75.34
73.71 73.99 73.96 74.49 74.96 75.35 75.47 77.41 76.92 76.67 76.36 76.41 76.66 76.37 75.76 74.95 74.64 74.37 73.08 74.36 75.19 76.09 76.05 75.88 75.91 75.66 76.02 76.62 76.51 76.51 76.75 76.60 73.00 72.86 73.03 72.85 76.35 77.62 77.88 76.56 76.38 76.87 76.25
72.89 72.79 73.39 73.74 73.75 73.72 73.58 74.76 76.59 77.01 76.40 75.32 73.26 73.34 72.48 69.62 70.10 69.59 71.00 72.92 75.10 75.74 75.80 75.38 75.80 75.74 75.82 75.73 76.35 76.46 76.52 73.23 72.11 72.59 72.40 72.40 75.62 77.12 77.65 76.92 77.05 76.91 76.35
70.36 71.40 71.77 73.02 73.64 73.90 73.90 73.92 72.80 72.93 69.07 69.08 68.30 67.85 68.34 69.38 69.74 70.86 69.58 72.43 75.24 75.91 75.83 76.29 75.63 75.99 75.41 73.41 73.18 75.09 73.67 71.57 71.07 72.02 71.75 73.95 73.64 77.27 76.91 76.36 76.72 77.07 76.46
70.57 71.25 71.72 71.97 73.35 73.10 73.08 72.23 70.92 69.10 67.19 67.87 66.97 66.88 67.00 69.23 68.06 69.39 68.23 68.43 71.12 74.64 72.11 73.82 74.26 74.14 72.73 71.72 71.56 68.81 71.60 72.27 71.76 72.51 72.72 75.47 75.62 77.55 76.83 76.77 76.71 76.90 76.66
69.32 70.19 71.94 72.96 73.10 72.70 72.00 69.62 69.07 67.82 67.05 66.38 66.33 67.21 67.77 69.14 67.55 69.31 67.23 67.82 69.76 71.63 72.53 71.52 71.58 72.39 71.82 71.58 68.74 68.65 70.76 72.63 72.36 71.80 71.20 74.96 76.67 77.58 77.49 76.37 76.64 76.89 76.96
69.20 70.03 71.71 72.63 72.27 72.35 71.63 68.62 68.48 67.71 66.91 66.22 66.33 67.63 68.14 69.42 69.56 71.50 67.24 67.37 69.66 72.61 72.12 71.56 72.15 70.91 71.03 70.33 69.97 70.03 71.10 70.50 72.14 71.01 71.80 73.03 75.93 77.38 77.80 76.89 76.47 76.61 76.31
69.67 69.71 72.05 72.63 72.76 72.43 71.76 67.36 66.46 67.91 68.53 67.39 67.17 67.57 69.55 70.41 71.35 71.27 70.15 70.32 71.19 72.05 71.48 71.19 71.79 70.78 71.06 70.53 70.51 70.92 71.18 71.89 71.70 71.97 71.73 71.79 76.19 77.22 77.62 77.91 77.24 77.25 76.53
70.19 70.23 71.16 72.56 73.67 72.44 71.33 69.12 68.89 68.40 72.05 71.44 70.98 71.87 73.24 71.66 72.39 71.94 71.34 70.75 71.47 71.45 70.63 72.14 72.39 71.44 71.60 70.36 71.55 70.51 70.81 70.97 69.68 71.98 72.21 72.14 74.54 77.55 77.61 77.86 77.44 77.59 77.63
70.01 69.76 72.03 73.01 72.81 73.03 71.84 72.47 71.93 71.63 70.93 71.85 71.87 72.16 72.37 72.19 72.39 71.80 71.78 71.87 72.32 71.96 72.33 72.04 71.80 70.59 70.27 70.76 69.61 71.48 71.54 70.17 69.67 70.70 71.67 72.92 72.40 73.48 76.74 77.36 77.73 77.54 77.93
71.13 70.91 70.77 71.37 72.10 72.98 72.98 72.99 72.46 71.40 71.43 72.32 72.30 72.26 72.50 72.71 72.70 72.66 72.20 72.07 72.63 72.08 72.36 72.18 72.34 71.09 71.46 70.29 70.07 70.09 70.56 70.64 70.69 72.02 71.55 70.55 72.48 73.37 73.92 76.37 77.29 77.24 77.49
71.76 71.53 71.72 72.27 72.85 73.00 73.91 73.04 72.44 70.12 70.53 72.05 72.10 72.20 72.11 72.83 73.62 72.87 71.03 68.98 70.37 71.65 71.17 71.68 71.33 71.17 70.78 71.02 73.08 69.70 68.89 68.60 69.60 68.53 69.83 72.64 71.69 72.78 72.64 73.25 75.21 75.17 77.35
72.08 71.72 71.04 71.90 72.24 73.09 73.02 71.83 71.20 70.66 71.41 71.92 72.59 73.51 72.58 73.43 73.43 72.62 71.05 70.74 71.39 71.56 71.24 71.88 71.18 69.74 69.54 71.16 69.19 69.02 67.95 65.78 67.03 67.64 67.95 70.09 72.33 71.55 73.21 73.47 73.80 73.87 75.57
71.04 72.31 72.08 71.90 72.25 72.73 72.43 72.11 71.33 71.63 70.35 67.38 68.35 71.44 73.47 72.65 72.87 72.95 72.58 71.52 71.54 71.38 71.26 70.77 71.10 70.25 69.58 69.49 67.71 67.48 62.18 62.45 65.34 66.57 66.37 67.06 68.80 72.10 74.05 73.96 73.22 73.23 73.77
71.08 72.42 72.85 73.89 73.35 73.84 73.44 73.40 72.87 71.66 72.31 70.62 70.46 71.11 73.18 73.95 74.11 73.43 73.34 72.92 72.08 71.87 71.30 71.21 70.84 70.23 67.46 67.48 67.67 66.88 63.36 61.03 61.55 65.45 67.00 68.91 68.15 70.04 70.53 74.11 73.57 73.78 73.94
72.23 73.42 73.42 74.54 74.35 73.99 74.52 73.09 71.29 69.99 68.79 70.50 71.09 70.83 71.83 73.24 72.63 72.73 73.85 72.43 72.49 72.57 71.63 71.37 72.52 71.02 69.71 68.38 67.87 70.30 69.05 64.79 60.31 61.01 68.63 68.36 67.15 68.53 71.47 72.45 74.47 73.31 73.59
73.03 73.82 74.30 75.10 75.08 74.59 74.97 74.03 72.56 70.91 70.89 71.49 72.03 69.19 71.75 73.11 71.86 71.95 71.59 71.57 71.41 72.95 73.04 71.87 71.60 71.48 70.92 68.07 68.58 69.08 67.51 66.47 67.60 65.29 62.58 63.46 66.83 66.77 68.65 70.29 71.79 72.04 74.19
73.27 73.92 74.74 74.43 75.14 75.54 75.26 74.79 73.47 71.55 71.79 70.21 66.87 66.80 68.74 72.90 72.13 70.60 70.58 70.02 71.96 72.52 72.73 73.14 73.04 72.23 71.13 69.08 68.63 67.37 64.59 65.27 63.35 63.37 63.41 63.55 63.80 65.27 68.78 70.41 70.51 72.72 73.27
MSLP
1014.78 1014.70 1014.91 1015.18 1015.53 1015.90 1016.31 1016.62 1016.76 1016.73 1016.78 1016.92 1017.03 1017.12 1017.27 1017.51 1017.83 1018.00 1018.11 1018.25 1018.23 1018.22 1018.26 1018.24 1018.33 1018.50 1018.67 1018.90 1018.94 1019.04 1019.19 1019.35 1019.44 1019.49 1019.53 1019.60 1019.77 1019.88 1020.04 1020.24 1020.41 1020.47 1020.59
1013.88 1014.63 1014.85 1015.25 1015.62 1015.93 1016.37 1016.78 1017.02 1017.08 1017.22 1017.34 1017.50 1017.57 1017.69 1018.00 1018.32 1018.47 1018.50 1018.45 1018.39 1018.45 1018.52 1018.53 1018.61 1018.69 1018.87 1019.09 1019.27 1019.43 1019.46 1019.47 1019.58 1019.68 1019.70 1019.83 1019.84 1019.92 1020.25 1020.44 1020.60 1020.75 1020.83
1013.81 1014.51 1014.99 1015.39 1015.79 1016.08 1016.47 1016.84 1017.16 1017.32 1017.49 1017.62 1017.86 1017.98 1018.14 1018.46 1018.66 1018.66 1018.69 1018.65 1018.60 1018.64 1018.78 1018.84 1018.82 1018.91 1019.09 1019.34 1019.51 1019.61 1019.64 1019.69 1019.58 1019.56 1019.75 1020.01 1020.10 1020.18 1020.35 1020.57 1020.78 1020.97 1021.13
1013.66 1014.43 1015.03 1015.44 1015.73 1016.15 1016.60 1016.91 1017.12 1017.46 1017.77 1017.94 1018.04 1018.23 1018.35 1018.52 1018.66 1018.69 1018.73 1018.76 1018.75 1018.84 1019.03 1019.24 1019.30 1019.25 1019.32 1019.44 1019.55 1019.73 1019.76 1019.70 1019.70 1019.67 1019.87 1019.94 1020.11 1020.26 1020.37 1020.69 1020.86 1020.99 1021.19
1013.80 1014.49 1015.13 1015.60 1015.90 1016.30 1016.66 1016.93 1017.17 1017.52 1017.87 1018.04 1018.15 1018.33 1018.43 1018.56 1018.75 1018.88 1018.89 1018.92 1018.96 1018.98 1019.14 1019.33 1019.57 1019.62 1019.51 1019.58 1019.58 1019.77 1019.85 1019.99 1020.17 1019.91 1020.22 1020.41 1020.40 1020.65 1020.66 1020.80 1020.98 1021.10 1021.31
1013.90 1014.66 1015.24 1015.72 1016.04 1016.35 1016.69 1016.97 1017.33 1017.57 1017.86 1018.14 1018.25 1018.39 1018.56 1018.70 1018.88 1018.94 1018.97 1019.06 1019.16 1019.18 1019.17 1019.28 1019.51 1019.71 1019.77 1019.65 1019.56 1019.53 1019.76 1019.97 1020.33 1020.45 1020.51 1020.71 1020.69 1020.87 1020.89 1020.97 1021.04 1021.21 1021.35
1014.34 1014.89 1015.41 1015.80 1016.10 1016.40 1016.74 1017.02 1017.45 1017.71 1017.99 1018.18 1018.32 1018.55 1018.77 1018.84 1018.91 1019.05 1019.17 1019.22 1019.27 1019.30 1019.28 1019.33 1019.46 1019.62 1019.79 1019.63 1019.48 1019.51 1019.78 1020.13 1020.61 1020.59 1020.50 1021.08 1020.88 1020.94 1021.04 1021.05 1021.19 1021.32 1021.47
1014.26 1014.85 1015.57 1015.88 1016.19 1016.46 1016.72 1017.11 1017.47 1017.78 1018.02 1018.18 1018.35 1018.58 1018.80 1018.88 1018.95 1019.04 1019.24 1019.37 1019.38 1019.27 1019.28 1019.41 1019.46 1019.50 1019.69 1019.62 1019.57 1019.60 1019.75 1020.21 1020.64 1020.92 1020.89 1020.60 1020.62 1020.97 1021.02 1021.19 1021.25 1021.35 1021.47
1014.33 1014.93 1015.66 1016.11 1016.27 1016.50 1016.77 1017.10 1017.37 1017.69 1017.93 1018.15 1018.43 1018.68 1018.79 1018.75 1018.71 1018.78 1019.09 1019.24 1019.35 1019.36 1019.24 1019.55 1019.46 1019.55 1019.65 1019.78 1019.72 1019.69 1019.83 1020.26 1020.79 1021.07 1020.95 1020.93 1020.70 1020.92 1020.93 1021.11 1021.26 1021.32 1021.50
1014.45 1015.08 1015.67 1016.27 1016.36 1016.58 1016.79 1017.06 1017.42 1017.62 1017.83 1018.14 1018.50 1018.79 1018.72 1018.94 1018.88 1018.86 1018.92 1019.15 1019.19 1019.38 1019.34 1019.53 1019.52 1019.65 1019.72 1019.73 1019.70 1019.69 1019.93 1020.20 1020.68 1020.99 1021.02 1021.29 1020.83 1020.90 1020.96 1020.95 1021.09 1021.24 1021.44
1014.99 1015.25 1015.73 1016.21 1016.48 1016.69 1016.94 1017.16 1017.49 1017.82 1017.87 1017.99 1018.33 1018.66 1019.03 1019.26 1019.18 1019.10 1019.10 1019.10 1019.18 1019.27 1019.32 1019.40 1019.57 1019.68 1019.91 1019.96 1019.59 1019.69 1019.73 1020.06 1020.99 1020.97 1020.68 1020.62 1020.93 1020.95 1021.02 1020.75 1020.88 1021.10 1021.28
1014.99 1015.40 1015.74 1015.83 1016.21 1016.53 1016.94 1017.38 1017.74 1017.82 1018.08 1018.14 1018.21 1018.61 1019.13 1019.09 1018.64 1018.49 1018.90 1019.03 1019.22 1019.19 1019.34 1019.32 1019.36 1019.61 1019.81 1019.80 1019.62 1019.82 1019.88 1020.56 1020.92 1021.07 1020.93 1020.68 1020.85 1020.91 1020.82 1020.47 1020.70 1020.91 1021.12
1014.22 1014.95 1015.34 1015.69 1015.96 1016.29 1016.81 1017.42 1017.85 1017.96 1018.13 1018.24 1018.42 1018.70 1018.99 1018.88 1018.49 1018.07 1018.45 1018.97 1019.53 1019.31 1019.46 1019.32 1019.38 1019.34 1019.53 1019.65 1019.59 1019.87 1019.98 1020.36 1020.52 1020.83 1020.99 1020.69 1020.77 1020.49 1020.46 1020.12 1020.35 1020.67 1020.91
1013.95 1014.44 1014.82 1015.07 1015.64 1016.10 1016.70 1017.28 1017.62 1017.89 1017.98 1018.23 1018.50 1018.70 1018.96 1019.14 1018.91 1018.19 1018.53 1019.57 1019.92 1019.51 1019.17 1019.56 1019.61 1019.19 1019.37 1019.32 1019.32 1019.31 1019.97 1019.62 1019.65 1019.91 1020.36 1020.47 1020.21 1020.15 1020.33 1020.00 1019.91 1020.36 1020.56
1013.58 1014.07 1014.39 1014.84 1015.39 1015.91 1016.52 1017.09 1017.60 1017.92 1018.01 1018.19 1018.40 1018.51 1018.90 1019.10 1019.14 1018.51 1019.12 1019.76 1020.01 1019.17 1019.16 1018.98 1019.24 1019.37 1019.19 1019.29 1019.06 1019.04 1019.69 1019.58 1019.28 1019.92 1020.40 1020.31 1020.54 1019.93 1019.79 1019.59 1019.69 1019.98 1020.24
1013.49 1013.81 1014.14 1014.68 1015.21 1015.68 1016.11 1016.93 1017.57 1017.71 1017.87 1018.07 1018.23 1018.27 1018.42 1018.60 1018.88 1019.09 1019.15 1019.50 1019.42 1018.88 1018.56 1018.67 1018.63 1018.92 1018.78 1018.66 1018.99 1018.81 1019.11 1019.50 1019.82 1019.90 1019.29 1019.59 1019.86 1019.90 1019.60 1019.17 1019.23 1019.52 1019.87
1012.89 1013.29 1013.91 1014.41 1014.90 1015.51 1015.97 1016.50 1017.17 1017.37 1017.28 1017.75 1017.97 1018.08 1017.99 1017.97 1018.20 1018.29 1018.64 1018.96 1018.78 1018.82 1018.65 1018.49 1018.15 1018.17 1017.96 1018.15 1018.29 1018.24 1018.75 1019.36 1019.55 1019.38 1019.37 1019.46 1019.31 1019.27 1019.39 1019.44 1019.21 1019.23 1019.59
1012.47 1012.98 1013.48 1014.04 1014.79 1015.21 1015.63 1016.09 1016.55 1016.84 1017.03 1017.14 1017.22 1017.28 1017.45 1017.68 1017.96 1018.28 1018.46 1018.47 1018.54 1018.50 1018.05 1018.00 1018.14 1018.11 1018.18 1018.00 1018.01 1017.86 1017.83 1018.12 1018.15 1018.70 1018.52 1018.56 1018.30 1018.40 1018.73 1019.02 1018.91 1019.00 1019.14
1012.16 1012.94 1013.33 1013.69 1014.32 1014.94 1015.41 1015.70 1016.11 1016.42 1016.61 1016.80 1016.92 1016.92 1016.94 1016.95 1017.42 1018.03 1018.09 1018.21 1018.17 1018.18 1018.07 1018.00 1017.84 1017.86 1017.92 1017.91 1018.01 1018.20 1018.20 1018.31 1018.20 1017.85 1017.50 1017.35 1017.33 1017.64 1017.95 1018.13 1018.46 1018.51 1018.80
1011.80 1012.59 1013.06 1013.45 1014.05 1014.65 1015.25 1015.62 1016.09 1016.55 1016.48 1016.59 1016.60 1016.62 1016.56 1016.48 1016.53 1017.12 1017.46 1017.78 1017.94 1018.02 1018.21 1018.08 1017.91 1017.65 1017.74 1017.80 1017.74 1018.10 1018.36 1018.00 1017.85 1017.65 1017.70 1017.38 1016.94 1017.03 1017.23 1017.64 1017.93 1018.07 1018.41
1011.47 1012.32 1012.90 1013.48 1014.03 1014.58 1015.29 1015.91 1016.40 1016.58 1016.42 1016.62 1016.44 1016.28 1016.38 1016.16 1016.22 1016.83 1017.19 1017.45 1017.59 1017.87 1018.00 1017.99 1017.75 1017.74 1017.82 1017.80 1018.10 1018.22 1017.76 1017.64 1017.54 1017.47 1017.59 1017.81 1017.19 1016.61 1016.79 1017.01 1017.33 1017.63 1017.89
1011.03 1011.83 1012.53 1013.14 1013.78 1014.37 1014.94 1015.47 1015.58 1015.90 1016.07 1016.28 1016.41 1016.35 1016.02 1016.11 1016.11 1016.68 1016.92 1017.21 1017.24 1017.61 1017.89 1018.11 1017.86 1017.68 1017.98 1017.98 1018.38 1018.68 1018.71 1017.89 1017.35 1017.18 1017.45 1017.49 1017.17 1016.66 1016.03 1016.62 1016.87 1017.24 1017.23
1010.47 1011.14 1011.81 1012.43 1013.16 1013.93 1014.38 1014.83 1015.23 1015.52 1015.40 1016.19 1016.19 1016.14 1015.91 1015.55 1015.44 1015.66 1015.99 1016.29 1016.71 1017.12 1017.54 1017.76 1017.87 1017.88 1018.18 1018.20 1018.16 1018.53 1019.31 1019.12 1018.81 1017.95 1017.83 1017.57 1017.64 1017.03 1015.88 1015.86 1016.16 1016.44 1016.58
1009.86 1010.44 1011.08 1011.86 1012.61 1013.23 1013.77 1014.34 1014.66 1015.14 1015.83 1015.58 1015.56 1015.67 1015.63 1014.87 1014.90 1015.39 1015.40 1015.64 1016.16 1016.69 1017.00 1017.23 1017.24 1017.38 1017.82 1018.04 1018.27 1018.19 1018.27 1018.59 1018.88 1018.86 1017.53 1017.81 1017.65 1017.48 1015.82 1015.51 1015.60 1015.66 1015.96
1009.19 1009.79 1010.42 1011.40 1012.27 1012.72 1013.29 1013.84 1014.35 1014.76 1014.95 1014.83 1015.24 1015.67 1015.40 1015.39 1016.17 1016.95 1016.91 1016.53 1016.23 1016.30 1016.54 1016.66 1016.92 1017.23 1017.24 1017.60 1017.83 1018.07 1018.03 1018.23 1018.16 1018.80 1019.22 1018.48 1017.48 1016.86 1016.17 1015.78 1015.56 1015.13 1015.29
1008.79 1009.20 1009.94 1010.86 1011.87 1012.39 1012.73 1013.16 1013.70 1014.21 1014.62 1014.86 1015.49 1015.42 1015.62 1015.40 1016.29 1016.00 1015.81 1015.15 1015.69 1016.11 1016.12 1016.30 1016.35 1016.61 1016.86 1017.12 1017.33 1017.31 1017.29 1017.48 1017.83 1018.59 1018.61 1018.08 1018.04 1016.75 1015.80 1015.34 1015.52 1015.34 1014.61
Wind_Speed
11 12 16 19 20 19 18 16 16 15 15 16 16 17 17 17 15 14 13 13 13 14 14 12 13 13 16 16 15 14 16 17 17 18 16 15 13 13 17 19 17 13 16
18 14 17 19 20 19 17 16 15 14 14 15 14 15 16 15 14 13 12 13 12 13 14 13 12 12 13 14 13 14 13 14 15 17 17 17 16 13 16 18 17 13 16
17 16 14 18 19 19 17 17 15 15 14 13 14 14 15 14 12 12 11 11 11 11 12 12 11 12 10 11 10 11 13 12 13 17 17 6 8 16 17 17 16 15 15
18 15 13 18 19 19 17 16 15 15 14 13 13 12 12 12 10 10 9 9 9 9 9 9 9 10 9 8 7 8 8 11 13 16 7 8 10 15 16 15 15 15 14
17 16 15 19 19 19 18 16 14 14 14 13 12 11 11 10 9 7 7 7 6 6 6 5 7 7 8 7 6 5 6 7 8 8 4 5 6 11 14 14 13 13 12
17 16 18 19 20 19 18 16 15 15 13 12 11 10 9 8 6 5 5 4 4 3 2 2 3 6 6 7 6 7 6 7 6 4 3 8 7 12 14 14 14 13 12
17 16 15 19 18 18 16 16 15 14 14 12 11 9 7 6 6 5 3 2 3 3 3 2 2 3 5 7 8 8 6 6 3 4 7 7 9 13 13 14 13 13 12
18 15 13 18 18 17 16 16 15 14 13 11 9 9 8 7 5 4 2 1 2 3 4 5 5 5 5 8 9 9 8 5 6 5 2 7 15 14 14 13 12 12 11
16 14 11 10 15 18 16 16 15 14 13 11 9 7 6 5 3 4 4 2 3 3 5 5 6 6 7 8 9 9 9 7 2 5 9 5 17 14 15 12 11 12 10
16 13 12 9 9 8 9 17 16 15 14 12 10 8 4 11 8 7 6 5 4 7 7 7 7 6 8 8 9 10 11 12 2 5 6 3 13 15 15 14 12 11 11
10 11 13 11 9 7 6 9 14 16 16 14 9 7 9 4 5 5 7 6 6 8 8 8 7 8 8 9 10 10 11 1 6 3 4 11 10 13 15 14 13 12 11
12 11 11 12 11 10 6 5 5 6 3 2 5 4 4 2 2 2 4 7 10 12 10 10 9 9 8 3 2 6 2 4 1 3 3 18 18 16 16 15 14 13 12
16 12 13 10 10 11 7 4 3 2 3 3 5 3 3 2 3 4 2 2 4 9 4 6 5 4 5 4 3 3 2 3 2 2 5 11 21 18 18 17 15 14 14
13 13 14 13 11 10 5 5 4 3 3 2 3 4 2 2 2 5 2 3 4 4 5 2 3 5 6 7 6 4 4 3 3 0 2 14 17 17 18 17 16 15 15
13 13 13 13 10 9 7 4 4 3 2 3 3 4 3 4 5 4 4 4 5 2 4 4 5 4 5 6 8 6 6 4 6 4 3 8 18 17 18 18 17 17 16
10 11 13 11 9 9 7 6 4 3 3 3 3 4 6 5 4 7 8 8 8 6 4 5 5 5 5 6 5 8 8 6 3 10 6 7 19 20 19 20 18 17 17
12 12 13 14 12 10 7 7 5 5 4 4 4 5 6 5 6 5 3 4 4 4 6 6 5 4 4 4 5 7 10 14 11 14 8 6 11 21 19 17 14 15 16
13 11 14 12 12 11 8 7 6 6 5 4 4 4 6 6 6 5 4 4 4 4 4 4 3 3 4 3 3 2 1 3 5 14 14 11 8 8 13 18 17 16 18
13 11 11 9 12 11 7 5 6 7 4 4 4 4 7 7 7 6 4 4 4 4 4 2 3 4 4 4 2 1 2 3 5 6 7 8 9 9 8 15 17 16 18
14 14 13 10 10 9 7 5 3 2 3 4 5 4 7 5 6 6 5 5 4 4 3 3 4 2 2 2 1 2 2 2 1 1 5 9 5 10 8 9 10 9 17
15 13 13 11 9 8 5 4 2 4 3 3 4 5 7 6 6 7 4 4 4 3 4 4 3 2 1 2 4 3 4 3 5 3 1 4 10 7 9 8 6 6 9
15 15 14 14 11 9 7 5 4 3 1 0 2 6 7 6 4 6 6 5 5 3 4 4 3 2 1 1 3 2 4 6 4 5 6 8 6 8 8 10 10 10 7
15 15 14 14 16 12 9 4 4 4 1 2 2 4 6 7 5 5 5 5 5 4 4 4 4 4 3 2 2 4 1 3 3 4 5 5 5 10 6 9 10 10 9
16 15 13 12 12 8 8 6 7 6 4 5 4 3 6 7 7 5 6 6 4 4 5 5 4 4 4 4 2 2 1 4 3 4 6 6 6 10 2 3 10 9 10
16 15 14 12 12 9 8 8 6 4 4 2 3 1 6 4 1 8 9 6 5 4 5 6 5 5 4 3 3 3 2 0 2 3 3 4 8 5 4 3 4 6 10
16 14 14 13 12 10 11 9 8 8 6 4 3 2 4 2 9 5 7 6 5 8 2 7 6 6 6 5 4 4 4 4 4 4 3 3 4 6 4 4 4 8 7
Wind_Direction
143 145 134 127 126 124 119 112 105 99 95 91 87 86 84 83 80 80 90 96 93 100 106 102 94 98 99 102 100 102 107 108 106 106 103 103 115 120 112 107 106 101 100
137 143 140 131 131 127 125 119 110 106 98 96 96 93 90 86 84 83 84 88 94 92 91 93 99 103 102 104 107 114 113 114 117 116 109 95 103 119 109 105 109 114 113
134 139 141 135 133 131 129 124 121 118 111 103 98 96 93 92 91 86 82 85 82 85 92 96 98 101 99 111 123 127 136 135 133 127 111 100 105 106 106 109 110 109 108
133 138 137 136 134 133 131 131 130 126 123 115 110 106 102 98 95 93 90 80 79 81 77 98 103 109 119 118 136 141 141 148 155 139 121 133 115 115 115 117 117 117 120
139 134 140 138 134 135 137 137 135 129 127 126 122 116 109 107 105 102 94 88 83 81 86 88 119 122 136 148 171 170 176 174 179 190 100 128 116 125 125 125 121 124 120
131 129 137 138 138 137 141 142 140 131 132 129 127 121 117 111 105 105 109 111 108 102 100 134 149 153 164 169 194 204 206 201 214 267 232 148 120 141 140 143 135 126 127
124 131 136 140 139 140 144 137 131 133 131 131 128 122 113 102 90 78 63 80 123 160 169 202 233 205 213 194 208 224 230 245 258 329 121 155 138 152 144 133 135 134 134
128 131 138 141 142 143 139 136 136 137 132 131 126 119 110 96 81 72 42 4 186 184 182 200 218 217 229 224 215 235 254 264 21 28 26 144 156 154 147 148 146 141 140
119 126 128 138 145 146 145 145 141 136 131 127 121 113 101 101 94 67 31 296 224 216 202 198 212 218 229 222 231 243 259 272 86 106 269 198 155 160 155 159 161 155 152
130 135 132 147 143 141 151 149 146 138 126 111 96 77 58 72 78 71 40 347 258 229 217 194 212 223 232 236 229 237 253 271 266 105 57 292 162 168 168 165 171 171 165
132 147 145 156 154 147 145 153 139 140 138 130 108 73 69 68 59 31 360 328 286 245 230 210 217 223 233 242 236 243 249 301 73 105 161 206 240 186 183 173 180 180 180
161 165 170 161 152 143 151 125 133 137 111 126 115 116 81 122 174 318 357 329 295 253 232 217 217 218 229 224 251 259 262 51 67 103 190 225 227 195 191 178 187 190 191
176 163 161 156 148 148 148 139 140 142 170 165 125 130 152 157 355 341 20 19 350 261 245 214 225 210 215 197 177 244 304 295 120 165 245 226 213 189 198 184 191 199 200
154 153 155 150 150 158 144 158 159 165 195 142 175 171 160 131 273 304 344 340 303 261 243 251 215 223 203 184 201 168 177 197 226 174 29 265 219 195 201 196 193 203 209
161 157 158 154 157 158 156 150 154 165 203 194 191 186 181 200 171 241 236 253 262 224 261 241 223 209 224 200 224 154 202 198 221 42 280 247 236 203 205 203 201 204 211
163 163 159 158 154 155 170 151 153 184 191 205 219 213 201 205 195 198 211 218 217 225 226 232 225 208 221 217 225 226 193 193 183 185 247 238 242 229 221 206 203 206 210
168 149 157 160 153 170 155 153 154 187 202 190 214 237 209 202 201 188 194 216 226 216 221 240 239 235 248 204 232 197 199 184 203 199 218 220 223 219 227 227 207 211 216
154 170 160 163 162 168 166 156 168 178 191 210 211 216 227 219 212 198 201 211 210 257 245 241 231 256 253 247 229 323 359 284 222 188 207 214 204 207 220 221 214 210 216
166 164 167 166 165 164 158 165 172 193 206 196 206 203 224 216 206 191 187 219 228 257 269 244 249 211 217 205 210 226 31 40 37 324 224 206 191 185 198 214 216 214 218
163 171 177 171 165 158 153 158 167 206 237 215 227 220 216 221 202 170 194 206 228 234 266 273 239 202 196 153 99 32 138 335 327 3 347 318 216 192 189 191 203 212 220
164 170 182 169 167 151 158 156 158 208 203 226 255 232 234 230 212 168 185 217 232 255 233 227 203 175 309 47 52 343 326 278 269 254 303 271 293 211 199 188 189 197 210
171 171 172 183 167 173 171 178 176 155 122 121 251 297 267 259 234 164 177 202 224 230 260 254 234 142 184 357 143 104 342 332 324 2 325 305 276 269 183 196 190 199 195
175 168 170 160 174 178 171 150 115 79 353 298 232 256 271 218 203 209 204 189 215 198 223 228 221 190 180 238 191 154 174 245 0 318 344 327 325 292 214 196 196 197 195
172 169 165 155 165 169 163 154 167 167 175 214 207 209 242 217 217 220 202 197 215 220 220 222 226 202 150 197 177 224 142 147 167 350 349 338 323 310 280 165 210 196 191
165 166 168 160 162 169 170 173 178 168 190 198 91 11 281 228 139 1 354 329 255 251 223 232 213 216 204 164 181 161 176 116 153 128 196 268 311 252 281 33 287 198 188
170 164 164 163 168 172 177 180 187 174 185 163 150 247 286 273 86 195 245 216 263 236 242 280 229 199 197 175 185 198 186 187 173 161 193 237 229 289 301 338 305 240 202